Regional Weather Roundup
Issued by NWS

Home | Current Version | Previous Version | Graphics & Text | Print | Product List | Glossary On
Versions: 1 2 3 4 5 6 7 8 9 10 11 12 13 14 15 16 17 18 19 20 21 22 23 24 25 26 27 28 29 30 31 32 33 34 35 36 37 38 39 40 41 42 43 44 45 46 47 48 49 50
000
ASUS43 KFSD 220810
RWRSD

WEATHER ROUNDUP FOR SOUTH DAKOTA
NATIONAL WEATHER SERVICE SIOUX FALLS SD
300 AM CDT TUE APR 22 2014

NOTE: "FAIR" INDICATES FEW OR NO CLOUDS BELOW 12,000 FEET WITH NO
SIGNIFICANT WEATHER AND/OR OBSTRUCTIONS TO VISIBILITY.


SDZ001>005-009-010-012>017-220900-
NORTHWEST AND NORTH CENTRAL SOUTH DAKOTA

CITY           SKY/WX    TMP DP  RH WIND       PRES   REMARKS
BUFFALO          N/A     47  30  51 SE15      29.96F
FAITH            N/A     43  30  60 SE14      30.06F
MOBRIDGE       PTCLDY    39  29  67 SE6       30.08F
$$

SDZ012>016-024>037-041>051-057-063-072>074-220900-
SOUTHWEST AND SOUTH CENTRAL SOUTH DAKOTA

CITY           SKY/WX    TMP DP  RH WIND       PRES   REMARKS
RAPID CTY ARPT CLEAR     45  27  49 SE5       30.05F
PIERRE         PTCLDY    37  29  72 SE3       30.11S
CUSTER         CLEAR     35  24  64 N3        30.08F
ELLSWORTH AFB  CLEAR     48  27  44 S12       30.04F
PHILIP         CLEAR     46  29  51 E9        30.08F
PINE RIDGE     CLEAR     54  24  31 S18G29    30.05F
SPEARFISH      FAIR      57  27  30 SW13G23   29.99F
WINNER         FAIR      46  31  55 S12       30.13F
$$

SDZ004>011-016>023-039-040-220900-
NORTHEAST SOUTH DAKOTA

CITY           SKY/WX    TMP DP  RH WIND       PRES   REMARKS
ABERDEEN       CLEAR     28  23  81 CALM      30.14S
WATERTOWN      CLEAR     29  27  92 SW5       30.13F WCI  24
SISSETON         N/A     32  28  85 S3        30.13S
$$

SDZ017-020-022-023-036>040-048>070-220900-
SOUTHEAST SOUTH DAKOTA

CITY           SKY/WX    TMP DP  RH WIND       PRES   REMARKS
SIOUX FALLS    CLEAR     35  28  75 CALM      30.15S
HURON          CLEAR     39  30  70 S3        30.14S
CHAMBERLAIN      N/A     40  30  67 SE7       30.14S
MITCHELL       CLEAR     41  32  70 S6        30.16R
YANKTON        CLEAR     43  30  61 S3        30.17F
$$

ABBREVIATIONS USED IN REMARKS
   TC - TEMPERATURE IN CELSIUS
  WCI - WIND CHILL INDEX
   HX - HEAT INDEX
  VSB - VISIBILITY




USA.gov is the U.S. government's official web portal to all federal, state and local government web resources and services.